Back to catalog

JASON 2

AliveScienceLEO
NORAD 33105·PAYLOAD·🇫🇷 France

Launched Jun 20, 2008 from Vandenberg Space Force Base

Loading…

Next Passes (next 24 hours)

TLE

FreshSource: Space-Track

Epoch: Sep 14, 2026, 12:18 UTC

1 33105U 08032A   26257.51311274 -.00000074  00000-0 -47778-4 0  9991
2 33105  66.0380 223.0051 0008036 269.3703 245.8460 12.87697700855203

Track JASON 2 in real time with AllMySat

Download on the App Store